Location: Laguna de la Cañada del Gallo
(40.3974°N, 5.2096°W)
Time: 15:55:41
(UTC+00:00)

NOSS 3-2 (A) - Visible Passes

Search period start: 12 July 2024 00:00
Search period end: 22 July 2024 00:00
Orbit: 705 x 1500 km, 63.4° (Epoch: 11 July)

Date Brightness Start Highest point End Pass type
(mag) Time Alt. Az. Time Alt. Az. Time Alt. Az.
12 Jul 6.5 00:44:18 10° N 00:48:29 16° NNE 00:53:01 10° ENE visible
12 Jul 5.1 02:33:56 10° NNW 02:41:10 48° NE 02:49:33 10° ESE visible
12 Jul 4.5 04:24:46 10° NW 04:32:13 47° WSW 04:40:38 10° S visible
12 Jul 6.7 23:59:08 10° N 00:01:50 12° NNE 00:04:43 10° NE visible
13 Jul 5.6 01:48:27 10° NNW 01:55:05 34° NE 02:02:43 10° ESE visible
13 Jul 4.2 03:38:50 10° NW 03:46:33 70° WSW 03:55:27 10° SSE visible
13 Jul 6.5 21:18:34 10° NW 21:20:42 12° NNW 21:22:57 10° N visible
13 Jul 6.8 23:15:00 10° N 23:15:07 10° NNE 23:15:12 10° NNE visible
14 Jul 6.0 01:03:03 10° NNW 01:08:52 25° NE 01:15:27 10° E visible
14 Jul 4.2 02:53:05 10° NNW 03:00:47 82° NE 03:09:44 10° SE visible
14 Jul 6.3 20:30:51 10° WNW 20:34:09 15° NNW 20:37:45 10° N visible
15 Jul 6.3 00:17:43 10° NNW 00:22:29 18° NNE 00:27:46 10° ENE visible
15 Jul 4.7 02:07:28 10° NNW 02:14:54 58° NE 02:23:34 10° SE visible
15 Jul 4.7 03:58:36 10° NW 04:05:46 38° WSW 04:13:47 10° S visible
15 Jul 6.5 23:32:28 10° N 23:35:56 14° NNE 23:39:41 10° NE visible
16 Jul 5.2 01:21:57 10° NNW 01:28:54 40° NE 01:36:57 10° ESE visible
16 Jul 4.2 03:12:32 10° NW 03:20:09 57° WSW 03:28:52 10° SSE visible
16 Jul 6.5 20:53:31 10° NNW 20:54:47 11° NNW 20:56:05 10° N visible
16 Jul 6.5 22:47:26 10° N 22:49:15 11° NNE 22:51:07 10° NNE visible
17 Jul 5.7 00:36:30 10° NNW 00:42:46 29° NE 00:49:53 10° E visible
17 Jul 4.1 02:26:42 10° NW 02:34:26 83° WSW 02:43:25 10° SSE visible
17 Jul 5.3 04:19:24 10° WNW 04:24:44 19° WSW 04:30:27 10° SSW visible
17 Jul 6.0 23:51:08 10° NNW 23:56:28 21° NE 00:02:25 10° E visible
18 Jul 4.4 01:41:01 10° NNW 01:48:37 69° NE 01:57:28 10° SE visible
18 Jul 4.9 03:32:33 10° NW 03:39:18 31° WSW 03:46:45 10° SSW visible
18 Jul 6.3 23:05:49 10° N 23:09:59 16° NNE 23:14:31 10° ENE visible
19 Jul 4.9 00:55:27 10° NNW 01:02:41 48° NE 01:11:04 10° ESE visible
19 Jul 4.4 02:46:18 10° NW 02:53:44 47° WSW 03:00:02 18° S visible
19 Jul 6.4 22:20:39 10° N 22:23:22 12° NNE 22:26:14 10° NE visible
20 Jul 5.4 00:09:58 10° NNW 00:16:36 34° NE 00:24:14 10° ESE visible
20 Jul 4.1 02:00:21 10° NW 02:08:04 70° WSW 02:12:59 29° SSE visible
20 Jul 5.6 03:54:05 10° WNW 03:58:09 15° WSW 04:00:11 13° WSW visible
20 Jul 5.7 23:24:34 10° NNW 23:30:23 25° NE 23:36:58 10° E visible
21 Jul 4.1 01:14:35 10° NNW 01:22:17 82° NE 01:26:50 33° SE visible
21 Jul 5.1 03:06:37 10° WNW 03:12:47 24° WSW 03:14:05 23° WSW visible
21 Jul 6.0 22:39:13 10° NNW 22:43:59 18° NNE 22:49:16 10° ENE visible
